date,time,SUV Intensity [MED/Hr],UV Index,Daily total [MED],Since Last [MED]
30/03/2023,00:04:39,0.000,0.0,0.0,0.0
30/03/2023,00:05:39,0.000,0.0,0.0,0.0
30/03/2023,00:06:39,-0.000,0.0,0.0,0.0
30/03/2023,00:07:38,-0.000,0.0,0.0,0.0
30/03/2023,00:08:39,0.000,0.0,0.0,0.0
30/03/2023,00:09:39,-0.001,0.0,0.0,0.0
30/03/2023,00:10:39,-0.001,0.0,0.0,0.0
30/03/2023,00:11:39,0.000,0.0,0.0,0.0
30/03/2023,00:12:39,0.000,0.0,0.0,0.0
30/03/2023,00:13:39,0.000,0.0,0.0,0.0
30/03/2023,00:14:38,-0.001,0.0,0.0,0.0
30/03/2023,00:15:39,0.000,0.0,0.0,0.0
30/03/2023,00:16:39,0.000,0.0,0.0,0.0
30/03/2023,00:17:39,0.000,0.0,0.0,0.0
30/03/2023,00:18:39,0.000,0.0,0.0,0.0
30/03/2023,00:19:39,0.001,0.0,0.0,0.0
30/03/2023,00:20:39,0.000,0.0,0.0,0.0
30/03/2023,00:21:39,0.000,0.0,0.0,0.0
30/03/2023,00:22:38,0.000,0.0,0.0,0.0
30/03/2023,00:23:39,0.000,0.0,0.0,0.0
30/03/2023,00:24:38,-0.000,0.0,0.0,0.0
30/03/2023,00:25:39,0.001,0.0,0.0,0.0
30/03/2023,00:26:39,0.000,0.0,0.0,0.0
30/03/2023,00:27:39,0.000,0.0,0.0,0.0
30/03/2023,00:28:38,-0.001,0.0,0.0,0.0
30/03/2023,00:29:39,-0.000,0.0,0.0,0.0
30/03/2023,00:30:39,0.001,0.0,0.0,0.0
30/03/2023,00:31:39,-0.001,0.0,0.0,0.0
30/03/2023,00:32:39,0.000,0.0,0.0,0.0
30/03/2023,00:33:39,-0.001,0.0,0.0,0.0
30/03/2023,00:34:38,0.000,0.0,0.0,0.0
30/03/2023,00:35:39,0.000,0.0,0.0,0.0
30/03/2023,00:36:39,0.000,0.0,0.0,0.0
30/03/2023,00:37:39,-0.001,0.0,0.0,0.0
30/03/2023,00:38:39,-0.000,0.0,0.0,0.0
30/03/2023,00:39:39,0.000,0.0,0.0,0.0
30/03/2023,00:40:39,0.001,0.0,0.0,0.0
30/03/2023,00:41:39,0.000,0.0,0.0,0.0
30/03/2023,00:42:38,0.001,0.0,0.0,0.0
30/03/2023,00:43:39,0.000,0.0,0.0,0.0
30/03/2023,00:44:39,0.001,0.0,0.0,0.0
30/03/2023,00:45:39,0.000,0.0,0.0,0.0
30/03/2023,00:46:39,0.000,0.0,0.0,0.0
30/03/2023,00:47:39,-0.000,0.0,0.0,0.0
30/03/2023,00:48:38,0.000,0.0,0.0,0.0
30/03/2023,00:49:39,0.000,0.0,0.0,0.0
30/03/2023,00:50:39,0.000,0.0,0.0,0.0
30/03/2023,00:51:39,0.000,0.0,0.0,0.0
30/03/2023,00:52:39,0.000,0.0,0.0,0.0
30/03/2023,00:53:39,0.000,0.0,0.0,0.0
30/03/2023,00:54:39,0.001,0.0,0.0,0.0
30/03/2023,00:55:39,-0.000,0.0,0.0,0.0
30/03/2023,00:56:39,0.000,0.0,0.0,0.0
30/03/2023,00:57:38,-0.001,0.0,0.0,0.0
30/03/2023,00:58:39,0.000,0.0,0.0,0.0
30/03/2023,00:59:39,-0.000,0.0,0.0,0.0
30/03/2023,01:00:39,0.000,0.0,0.0,0.0
30/03/2023,01:01:39,0.000,0.0,0.0,0.0
30/03/2023,01:02:39,0.000,0.0,0.0,0.0
30/03/2023,01:03:39,0.000,0.0,0.0,0.0
30/03/2023,01:04:39,0.000,0.0,0.0,0.0
30/03/2023,01:05:39,0.000,0.0,0.0,0.0
30/03/2023,01:06:39,0.001,0.0,0.0,0.0
30/03/2023,01:07:39,0.000,0.0,0.0,0.0
30/03/2023,01:08:39,0.000,0.0,0.0,0.0
30/03/2023,01:09:39,0.000,0.0,0.0,0.0
30/03/2023,01:10:38,-0.000,0.0,0.0,0.0
30/03/2023,01:11:39,0.001,0.0,0.0,0.0
30/03/2023,01:12:39,0.002,0.0,0.0,0.0
30/03/2023,01:14:08,0.001,0.0,0.0,0.0
30/03/2023,01:15:40,0.000,0.0,0.0,0.0
30/03/2023,01:16:39,0.001,0.0,0.0,0.0
30/03/2023,01:17:39,0.000,0.0,0.0,0.0
30/03/2023,01:18:39,0.000,0.0,0.0,0.0
30/03/2023,01:19:39,0.001,0.0,0.0,0.0
30/03/2023,01:20:39,0.001,0.0,0.0,0.0
30/03/2023,01:21:39,0.001,0.0,0.0,0.0
30/03/2023,01:22:39,0.002,0.0,0.0,0.0
30/03/2023,01:23:39,0.001,0.0,0.0,0.0
30/03/2023,01:24:39,0.001,0.0,0.0,0.0
30/03/2023,01:25:39,0.001,0.0,0.0,0.0
30/03/2023,01:26:39,0.001,0.0,0.0,0.0
30/03/2023,01:27:39,0.001,0.0,0.0,0.0
30/03/2023,01:28:39,0.001,0.0,0.0,0.0
30/03/2023,01:29:40,0.000,0.0,0.0,0.0
30/03/2023,01:30:39,0.001,0.0,0.0,0.0
30/03/2023,01:31:39,0.001,0.0,0.0,0.0
30/03/2023,01:32:39,0.001,0.0,0.0,0.0
30/03/2023,01:33:39,0.001,0.0,0.0,0.0
30/03/2023,01:34:39,0.001,0.0,0.0,0.0
30/03/2023,01:35:39,0.002,0.0,0.0,0.0
30/03/2023,01:36:39,0.001,0.0,0.0,0.0
30/03/2023,01:37:39,0.001,0.0,0.0,0.0
30/03/2023,01:38:39,0.001,0.0,0.0,0.0
30/03/2023,01:39:39,0.001,0.0,0.0,0.0
30/03/2023,01:40:39,0.001,0.0,0.0,0.0
30/03/2023,01:41:39,0.001,0.0,0.0,0.0
30/03/2023,01:42:39,0.001,0.0,0.0,0.0
30/03/2023,01:43:39,0.002,0.0,0.0,0.0
30/03/2023,01:44:39,0.001,0.0,0.0,0.0
30/03/2023,01:45:39,0.001,0.0,0.0,0.0
30/03/2023,01:46:39,0.001,0.0,0.0,0.0
30/03/2023,01:47:39,0.001,0.0,0.0,0.0
30/03/2023,01:48:39,0.000,0.0,0.0,0.0
30/03/2023,01:49:39,0.001,0.0,0.0,0.0
30/03/2023,01:50:39,0.001,0.0,0.0,0.0
30/03/2023,01:51:39,0.001,0.0,0.0,0.0
30/03/2023,01:52:39,0.002,0.0,0.0,0.0
30/03/2023,01:53:39,0.001,0.0,0.0,0.0
30/03/2023,01:54:39,0.002,0.0,0.0,0.0
30/03/2023,01:55:39,0.001,0.0,0.0,0.0
30/03/2023,01:56:39,0.001,0.0,0.0,0.0
30/03/2023,01:57:39,0.000,0.0,0.0,0.0
30/03/2023,01:58:39,0.001,0.0,0.0,0.0
30/03/2023,01:59:39,0.002,0.0,0.0,0.0
30/03/2023,02:00:39,0.001,0.0,0.0,0.0
30/03/2023,02:01:39,0.001,0.0,0.0,0.0
30/03/2023,02:02:39,0.000,0.0,0.0,0.0
30/03/2023,02:03:39,0.001,0.0,0.0,0.0
30/03/2023,02:04:39,0.001,0.0,0.0,0.0
30/03/2023,02:05:39,0.000,0.0,0.0,0.0
30/03/2023,02:06:39,0.002,0.0,0.0,0.0
30/03/2023,02:07:38,0.002,0.0,0.0,0.0
30/03/2023,02:08:39,0.001,0.0,0.0,0.0
30/03/2023,02:09:39,0.001,0.0,0.0,0.0
30/03/2023,02:10:39,0.001,0.0,0.0,0.0
30/03/2023,02:11:39,0.001,0.0,0.0,0.0
30/03/2023,02:12:39,0.001,0.0,0.0,0.0
30/03/2023,02:13:39,0.001,0.0,0.0,0.0
30/03/2023,02:14:39,0.001,0.0,0.0,0.0
30/03/2023,02:15:39,0.002,0.0,0.0,0.0
30/03/2023,02:16:39,0.000,0.0,0.0,0.0
30/03/2023,02:17:39,0.000,0.0,0.0,0.0
30/03/2023,02:18:39,0.002,0.0,0.0,0.0
30/03/2023,02:19:39,0.000,0.0,0.0,0.0
30/03/2023,02:20:39,0.001,0.0,0.0,0.0
30/03/2023,02:21:39,0.001,0.0,0.0,0.0
30/03/2023,02:22:39,0.001,0.0,0.0,0.0
30/03/2023,02:23:40,0.001,0.0,0.0,0.0
30/03/2023,02:24:39,0.001,0.0,0.0,0.0
30/03/2023,02:25:40,0.002,0.0,0.0,0.0
30/03/2023,02:26:39,0.001,0.0,0.0,0.0
30/03/2023,02:27:39,0.001,0.0,0.0,0.0
30/03/2023,02:28:39,0.000,0.0,0.0,0.0
30/03/2023,02:29:39,-0.000,0.0,0.0,0.0
30/03/2023,02:30:39,0.001,0.0,0.0,0.0
30/03/2023,02:31:39,0.000,0.0,0.0,0.0
30/03/2023,02:32:40,0.000,0.0,0.0,0.0
30/03/2023,02:33:39,0.001,0.0,0.0,0.0
30/03/2023,02:34:39,0.001,0.0,0.0,0.0
30/03/2023,02:35:39,0.000,0.0,0.0,0.0
30/03/2023,02:36:39,0.000,0.0,0.0,0.0
30/03/2023,02:37:39,0.001,0.0,0.0,0.0
30/03/2023,02:38:39,0.000,0.0,0.0,0.0
30/03/2023,02:39:39,0.001,0.0,0.0,0.0
30/03/2023,02:40:40,0.000,0.0,0.0,0.0
30/03/2023,02:41:39,0.001,0.0,0.0,0.0
30/03/2023,02:42:39,0.001,0.0,0.0,0.0
30/03/2023,02:43:40,-0.000,0.0,0.0,0.0
30/03/2023,02:44:39,0.000,0.0,0.0,0.0
30/03/2023,02:45:39,0.000,0.0,0.0,0.0
30/03/2023,02:46:39,0.001,0.0,0.0,0.0
30/03/2023,02:47:39,0.001,0.0,0.0,0.0
30/03/2023,02:48:39,0.001,0.0,0.0,0.0
30/03/2023,02:49:39,0.001,0.0,0.0,0.0
30/03/2023,02:50:39,0.000,0.0,0.0,0.0
30/03/2023,02:51:40,0.001,0.0,0.0,0.0
30/03/2023,02:52:39,0.001,0.0,0.0,0.0
30/03/2023,02:53:39,0.001,0.0,0.0,0.0
30/03/2023,02:54:39,0.000,0.0,0.0,0.0
30/03/2023,02:55:39,0.001,0.0,0.0,0.0
30/03/2023,02:56:39,-0.001,0.0,0.0,0.0
30/03/2023,02:57:39,0.001,0.0,0.0,0.0
30/03/2023,02:58:39,-0.000,0.0,0.0,0.0
30/03/2023,02:59:39,0.000,0.0,0.0,0.0
30/03/2023,03:00:39,0.000,0.0,0.0,0.0
30/03/2023,03:01:40,0.000,0.0,0.0,0.0
30/03/2023,03:02:40,0.000,0.0,0.0,0.0
30/03/2023,03:03:39,0.001,0.0,0.0,0.0
30/03/2023,03:04:39,0.000,0.0,0.0,0.0
30/03/2023,03:05:39,0.000,0.0,0.0,0.0
30/03/2023,03:06:39,0.000,0.0,0.0,0.0
30/03/2023,03:07:39,0.000,0.0,0.0,0.0
30/03/2023,03:08:39,0.000,0.0,0.0,0.0
30/03/2023,03:09:41,0.001,0.0,0.0,0.0
30/03/2023,03:10:39,0.001,0.0,0.0,0.0
30/03/2023,03:11:39,0.001,0.0,0.0,0.0
30/03/2023,03:12:39,0.000,0.0,0.0,0.0
30/03/2023,03:13:39,0.001,0.0,0.0,0.0
30/03/2023,03:14:39,0.001,0.0,0.0,0.0
30/03/2023,03:15:39,0.000,0.0,0.0,0.0
30/03/2023,03:16:39,0.000,0.0,0.0,0.0
30/03/2023,03:17:39,0.000,0.0,0.0,0.0
30/03/2023,03:18:39,0.001,0.0,0.0,0.0
30/03/2023,03:19:39,0.001,0.0,0.0,0.0
30/03/2023,03:20:39,0.001,0.0,0.0,0.0
30/03/2023,03:21:39,0.000,0.0,0.0,0.0
30/03/2023,03:22:39,0.000,0.0,0.0,0.0
30/03/2023,03:23:39,0.000,0.0,0.0,0.0
30/03/2023,03:24:39,0.001,0.0,0.0,0.0
30/03/2023,03:25:39,0.000,0.0,0.0,0.0
30/03/2023,03:26:39,0.000,0.0,0.0,0.0
30/03/2023,03:27:40,0.000,0.0,0.0,0.0
30/03/2023,03:28:40,-0.001,0.0,0.0,0.0
30/03/2023,03:29:39,0.001,0.0,0.0,0.0
30/03/2023,03:30:40,0.000,0.0,0.0,0.0
30/03/2023,03:31:39,-0.001,0.0,0.0,0.0
30/03/2023,03:32:39,0.001,0.0,0.0,0.0
30/03/2023,03:33:39,-0.000,0.0,0.0,0.0
30/03/2023,03:34:39,0.001,0.0,0.0,0.0
30/03/2023,03:35:39,0.000,0.0,0.0,0.0
30/03/2023,03:36:39,0.001,0.0,0.0,0.0
30/03/2023,03:37:39,0.000,0.0,0.0,0.0
30/03/2023,03:38:39,0.000,0.0,0.0,0.0
30/03/2023,03:39:40,0.000,0.0,0.0,0.0
30/03/2023,03:40:39,0.001,0.0,0.0,0.0
30/03/2023,03:41:38,0.000,0.0,0.0,0.0
30/03/2023,03:43:01,0.001,0.0,0.0,0.0
30/03/2023,03:44:40,0.001,0.0,0.0,0.0
30/03/2023,03:45:39,0.001,0.0,0.0,0.0
30/03/2023,03:46:39,0.000,0.0,0.0,0.0
30/03/2023,03:47:39,0.000,0.0,0.0,0.0
30/03/2023,03:48:39,0.001,0.0,0.0,0.0
30/03/2023,03:49:39,0.001,0.0,0.0,0.0
30/03/2023,03:50:39,0.000,0.0,0.0,0.0
30/03/2023,03:51:39,0.000,0.0,0.0,0.0
30/03/2023,03:52:39,0.001,0.0,0.0,0.0
30/03/2023,03:53:41,0.001,0.0,0.0,0.0
30/03/2023,03:54:38,0.000,0.0,0.0,0.0
30/03/2023,03:55:40,0.001,0.0,0.0,0.0
30/03/2023,03:56:39,0.000,0.0,0.0,0.0
30/03/2023,03:57:39,0.001,0.0,0.0,0.0
30/03/2023,03:58:39,0.000,0.0,0.0,0.0
30/03/2023,03:59:40,0.001,0.0,0.0,0.0
30/03/2023,04:00:40,0.001,0.0,0.0,0.0
30/03/2023,04:01:39,0.001,0.0,0.0,0.0
30/03/2023,04:02:40,0.001,0.0,0.0,0.0
30/03/2023,04:03:40,0.000,0.0,0.0,0.0
30/03/2023,04:04:40,-0.000,0.0,0.0,0.0
30/03/2023,04:05:40,0.000,0.0,0.0,0.0
30/03/2023,04:06:40,0.001,0.0,0.0,0.0
30/03/2023,04:07:39,0.000,0.0,0.0,0.0
30/03/2023,04:08:39,0.000,0.0,0.0,0.0
30/03/2023,04:09:40,0.000,0.0,0.0,0.0
30/03/2023,04:10:39,0.000,0.0,0.0,0.0
30/03/2023,04:11:39,0.000,0.0,0.0,0.0
30/03/2023,04:12:40,0.001,0.0,0.0,0.0
30/03/2023,04:13:40,-0.001,0.0,0.0,0.0
30/03/2023,04:14:40,-0.000,0.0,0.0,0.0
30/03/2023,04:15:40,0.000,0.0,0.0,0.0
30/03/2023,04:16:40,0.001,0.0,0.0,0.0
30/03/2023,04:17:39,0.000,0.0,0.0,0.0
30/03/2023,04:18:39,0.000,0.0,0.0,0.0
30/03/2023,04:19:40,0.000,0.0,0.0,0.0
30/03/2023,04:20:40,0.000,0.0,0.0,0.0
30/03/2023,04:21:39,0.000,0.0,0.0,0.0
30/03/2023,04:22:39,0.001,0.0,0.0,0.0
30/03/2023,04:23:40,0.001,0.0,0.0,0.0
30/03/2023,04:24:40,-0.000,0.0,0.0,0.0
30/03/2023,04:25:39,-0.000,0.0,0.0,0.0
30/03/2023,04:26:40,-0.001,0.0,0.0,0.0
30/03/2023,04:27:39,0.000,0.0,0.0,0.0
30/03/2023,04:28:39,-0.000,0.0,0.0,0.0
30/03/2023,04:29:39,0.001,0.0,0.0,0.0
30/03/2023,04:30:40,0.000,0.0,0.0,0.0
30/03/2023,04:31:40,0.001,0.0,0.0,0.0
30/03/2023,04:32:39,0.001,0.0,0.0,0.0
30/03/2023,04:33:39,0.001,0.0,0.0,0.0
30/03/2023,04:34:39,0.001,0.0,0.0,0.0
30/03/2023,04:35:39,0.000,0.0,0.0,0.0
30/03/2023,04:36:39,0.000,0.0,0.0,0.0
30/03/2023,04:37:39,0.000,0.0,0.0,0.0
30/03/2023,04:38:39,0.000,0.0,0.0,0.0
30/03/2023,04:39:39,0.000,0.0,0.0,0.0
30/03/2023,04:40:40,0.000,0.0,0.0,0.0
30/03/2023,04:41:39,0.000,0.0,0.0,0.0
30/03/2023,04:42:40,0.000,0.0,0.0,0.0
30/03/2023,04:43:40,0.000,0.0,0.0,0.0
30/03/2023,04:44:39,0.000,0.0,0.0,0.0
30/03/2023,04:45:40,0.000,0.0,0.0,0.0
30/03/2023,04:46:40,0.000,0.0,0.0,0.0
30/03/2023,04:47:40,0.001,0.0,0.0,0.0
30/03/2023,04:48:39,0.000,0.0,0.0,0.0
30/03/2023,04:49:39,0.000,0.0,0.0,0.0
30/03/2023,04:50:39,0.000,0.0,0.0,0.0
30/03/2023,04:51:39,0.000,0.0,0.0,0.0
30/03/2023,04:52:39,0.000,0.0,0.0,0.0
30/03/2023,04:53:39,0.000,0.0,0.0,0.0
30/03/2023,04:54:39,0.001,0.0,0.0,0.0
30/03/2023,04:55:39,-0.001,0.0,0.0,0.0
30/03/2023,04:56:40,0.001,0.0,0.0,0.0
30/03/2023,04:57:40,0.001,0.0,0.0,0.0
30/03/2023,04:58:40,0.000,0.0,0.0,0.0
30/03/2023,04:59:39,0.000,0.0,0.0,0.0
30/03/2023,05:00:39,0.001,0.0,0.0,0.0
30/03/2023,05:01:40,-0.000,0.0,0.0,0.0
30/03/2023,05:02:40,0.001,0.0,0.0,0.0
30/03/2023,05:03:39,0.000,0.0,0.0,0.0
30/03/2023,05:04:40,-0.000,0.0,0.0,0.0
30/03/2023,05:05:39,0.000,0.0,0.0,0.0
30/03/2023,05:06:39,0.001,0.0,0.0,0.0
30/03/2023,05:07:39,0.002,0.0,0.0,0.0
30/03/2023,05:08:39,0.001,0.0,0.0,0.0
30/03/2023,05:09:40,0.000,0.0,0.0,0.0
30/03/2023,05:10:40,0.000,0.0,0.0,0.0
30/03/2023,05:11:39,0.001,0.0,0.0,0.0
30/03/2023,05:12:39,0.001,0.0,0.0,0.0
30/03/2023,05:13:40,0.001,0.0,0.0,0.0
30/03/2023,05:14:40,0.000,0.0,0.0,0.0
30/03/2023,05:15:39,0.001,0.0,0.0,0.0
30/03/2023,05:16:40,0.001,0.0,0.0,0.0
30/03/2023,05:17:40,0.001,0.0,0.0,0.0
30/03/2023,05:18:39,0.001,0.0,0.0,0.0
30/03/2023,05:19:39,-0.000,0.0,0.0,0.0
30/03/2023,05:20:39,0.002,0.0,0.0,0.0
30/03/2023,05:21:39,0.000,0.0,0.0,0.0
30/03/2023,05:22:40,0.001,0.0,0.0,0.0
30/03/2023,05:23:40,0.001,0.0,0.0,0.0
30/03/2023,05:24:40,0.001,0.0,0.0,0.0
30/03/2023,05:25:39,0.001,0.0,0.0,0.0
30/03/2023,05:26:39,0.001,0.0,0.0,0.0
30/03/2023,05:27:39,0.001,0.0,0.0,0.0
30/03/2023,05:28:40,0.001,0.0,0.0,0.0
30/03/2023,05:29:39,0.001,0.0,0.0,0.0
30/03/2023,05:30:39,0.002,0.0,0.0,0.0
30/03/2023,05:31:40,0.001,0.0,0.0,0.0
30/03/2023,05:32:40,0.001,0.0,0.0,0.0
30/03/2023,05:33:40,0.001,0.0,0.0,0.0
30/03/2023,05:34:40,0.000,0.0,0.0,0.0
30/03/2023,05:35:39,0.001,0.0,0.0,0.0
30/03/2023,05:36:40,0.002,0.0,0.0,0.0
30/03/2023,05:37:40,0.002,0.0,0.0,0.0
30/03/2023,05:38:40,0.001,0.0,0.0,0.0
30/03/2023,05:39:40,0.001,0.0,0.0,0.0
30/03/2023,05:40:39,0.001,0.0,0.0,0.0
30/03/2023,05:41:39,0.001,0.0,0.0,0.0
30/03/2023,05:42:39,0.002,0.0,0.0,0.0
30/03/2023,05:43:40,0.002,0.0,0.0,0.0
30/03/2023,05:44:40,0.002,0.0,0.0,0.0
30/03/2023,05:45:40,0.002,0.0,0.0,0.0
30/03/2023,05:46:39,0.002,0.0,0.0,0.0
30/03/2023,05:47:40,0.002,0.0,0.0,0.0
30/03/2023,05:48:40,0.002,0.0,0.0,0.0
30/03/2023,05:49:40,0.002,0.0,0.0,0.0
30/03/2023,05:50:39,0.003,0.0,0.0,0.0
30/03/2023,05:51:39,0.002,0.0,0.0,0.0
30/03/2023,05:52:39,0.002,0.0,0.0,0.0
30/03/2023,05:53:39,0.003,0.0,0.0,0.0
30/03/2023,05:54:39,0.003,0.0,0.0,0.0
30/03/2023,05:55:40,0.003,0.0,0.0,0.0
30/03/2023,05:56:40,0.004,0.0,0.0,0.0
30/03/2023,05:57:40,0.004,0.0,0.0,0.0
30/03/2023,05:58:40,0.004,0.0,0.0,0.0
30/03/2023,05:59:39,0.004,0.0,0.0,0.0
30/03/2023,06:00:39,0.003,0.0,0.0,0.0
30/03/2023,06:01:39,0.004,0.0,0.0,0.0
30/03/2023,06:02:39,0.003,0.0,0.0,0.0
30/03/2023,06:03:40,0.005,0.0,0.0,0.0
30/03/2023,06:04:40,0.004,0.0,0.0,0.0
30/03/2023,06:05:40,0.005,0.0,0.0,0.0
30/03/2023,06:06:39,0.006,0.0,0.0,0.0
30/03/2023,06:07:39,0.005,0.0,0.0,0.0
30/03/2023,06:08:39,0.006,0.0,0.0,0.0
30/03/2023,06:09:39,0.006,0.0,0.0,0.0
30/03/2023,06:10:40,0.006,0.0,0.0,0.0
30/03/2023,06:11:39,0.007,0.0,0.0,0.0
30/03/2023,06:12:40,0.007,0.0,0.0,0.0
30/03/2023,06:13:39,0.007,0.0,0.0,0.0
30/03/2023,06:14:40,0.008,0.0,0.0,0.0
30/03/2023,06:15:40,0.008,0.0,0.001,0.001
30/03/2023,06:16:39,0.008,0.0,0.001,0.0
30/03/2023,06:17:40,0.009,0.0,0.001,0.0
30/03/2023,06:18:40,0.008,0.0,0.001,0.0
30/03/2023,06:19:40,0.010,0.0,0.001,0.0
30/03/2023,06:20:40,0.011,0.0,0.001,0.0
30/03/2023,06:21:39,0.010,0.0,0.001,0.0
30/03/2023,06:22:39,0.010,0.0,0.002,0.001
30/03/2023,06:23:39,0.012,0.0,0.002,0.0
30/03/2023,06:24:39,0.011,0.0,0.002,0.0
30/03/2023,06:25:39,0.012,0.0,0.002,0.0
30/03/2023,06:26:39,0.013,0.0,0.002,0.0
30/03/2023,06:27:39,0.013,0.0,0.003,0.001
30/03/2023,06:28:39,0.015,0.0,0.003,0.0
30/03/2023,06:29:40,0.016,0.0,0.003,0.0
30/03/2023,06:30:40,0.017,0.0,0.003,0.0
30/03/2023,06:31:39,0.016,0.0,0.004,0.001
30/03/2023,06:32:40,0.015,0.0,0.004,0.0
30/03/2023,06:33:40,0.016,0.0,0.004,0.0
30/03/2023,06:34:40,0.016,0.0,0.004,0.0
30/03/2023,06:35:39,0.019,0.0,0.005,0.001
30/03/2023,06:36:40,0.019,0.0,0.005,0.0
30/03/2023,06:37:39,0.022,0.0,0.005,0.0
30/03/2023,06:38:40,0.022,0.0,0.006,0.001
30/03/2023,06:39:40,0.023,0.0,0.006,0.0
30/03/2023,06:40:39,0.024,0.0,0.007,0.001
30/03/2023,06:41:40,0.026,0.0,0.007,0.0
30/03/2023,06:42:39,0.026,0.0,0.007,0.0
30/03/2023,06:43:40,0.026,0.0,0.008,0.001
30/03/2023,06:44:40,0.027,0.0,0.008,0.0
30/03/2023,06:45:39,0.027,0.0,0.009,0.001
30/03/2023,06:46:39,0.028,0.0,0.009,0.0
30/03/2023,06:47:40,0.028,0.0,0.01,0.001
30/03/2023,06:48:40,0.030,0.0,0.01,0.0
30/03/2023,06:49:40,0.032,0.0,0.011,0.001
30/03/2023,06:50:40,0.032,0.0,0.011,0.0
30/03/2023,06:51:40,0.034,0.0,0.012,0.001
30/03/2023,06:52:39,0.035,0.0,0.012,0.0
30/03/2023,06:53:39,0.036,0.0,0.013,0.001
30/03/2023,06:54:39,0.037,0.0,0.014,0.001
30/03/2023,06:55:40,0.039,0.0,0.014,0.0
30/03/2023,06:56:39,0.039,0.0,0.015,0.001
30/03/2023,06:57:40,0.042,0.0,0.015,0.0
30/03/2023,06:58:40,0.043,0.0,0.016,0.001
30/03/2023,06:59:40,0.044,0.0,0.017,0.001
30/03/2023,07:00:39,0.046,0.0,0.018,0.001
30/03/2023,07:01:41,0.047,0.0,0.018,0.0
30/03/2023,07:02:41,0.048,0.0,0.019,0.001
30/03/2023,07:03:40,0.049,0.0,0.02,0.001
30/03/2023,07:04:40,0.051,0.0,0.021,0.001
30/03/2023,07:05:39,0.051,0.0,0.022,0.001
30/03/2023,07:06:39,0.053,0.0,0.023,0.001
30/03/2023,07:07:39,0.054,0.0,0.023,0.0
30/03/2023,07:08:39,0.057,0.0,0.024,0.001
30/03/2023,07:09:40,0.057,0.0,0.025,0.001
30/03/2023,07:10:39,0.059,0.0,0.026,0.001
30/03/2023,07:11:40,0.060,0.0,0.027,0.001
30/03/2023,07:12:40,0.062,0.0,0.028,0.001
30/03/2023,07:13:40,0.063,0.0,0.029,0.001
30/03/2023,07:14:39,0.065,0.0,0.03,0.001
30/03/2023,07:15:40,0.067,0.0,0.032,0.002
30/03/2023,07:16:40,0.070,0.0,0.033,0.001
30/03/2023,07:17:39,0.072,0.0,0.034,0.001
30/03/2023,07:18:39,0.074,0.0,0.035,0.001
30/03/2023,07:19:40,0.075,0.0,0.036,0.001
30/03/2023,07:20:40,0.078,0.0,0.038,0.002
30/03/2023,07:21:40,0.077,0.0,0.039,0.001
30/03/2023,07:22:40,0.078,0.0,0.04,0.001
30/03/2023,07:23:39,0.078,0.0,0.042,0.002
30/03/2023,07:24:40,0.078,0.0,0.043,0.001
30/03/2023,07:25:40,0.076,0.0,0.044,0.001
30/03/2023,07:26:40,0.074,0.0,0.045,0.001
30/03/2023,07:27:39,0.073,0.0,0.047,0.002
30/03/2023,07:28:39,0.074,0.0,0.048,0.001
30/03/2023,07:29:40,0.083,0.0,0.049,0.001
30/03/2023,07:30:40,0.090,0.0,0.051,0.002
30/03/2023,07:31:39,0.092,0.0,0.052,0.001
30/03/2023,07:32:39,0.096,0.0,0.054,0.002
30/03/2023,07:33:39,0.098,0.0,0.055,0.001
30/03/2023,07:34:40,0.100,0.0,0.057,0.002
30/03/2023,07:35:40,0.099,0.0,0.059,0.002
30/03/2023,07:36:39,0.097,0.0,0.06,0.001
30/03/2023,07:37:40,0.091,0.0,0.062,0.002
30/03/2023,07:38:39,0.081,0.0,0.063,0.001
30/03/2023,07:39:40,0.089,0.0,0.065,0.002
30/03/2023,07:40:40,0.104,0.0,0.066,0.001
30/03/2023,07:41:40,0.110,0.0,0.068,0.002
30/03/2023,07:42:39,0.114,0.0,0.07,0.002
30/03/2023,07:43:40,0.119,0.0,0.072,0.002
30/03/2023,07:44:40,0.129,0.0,0.074,0.002
30/03/2023,07:45:40,0.125,0.0,0.076,0.002
30/03/2023,07:46:40,0.133,0.0,0.078,0.002
30/03/2023,07:47:40,0.136,0.0,0.08,0.002
30/03/2023,07:48:40,0.145,0.0,0.083,0.003
30/03/2023,07:49:39,0.153,0.0,0.085,0.002
30/03/2023,07:50:40,0.156,0.0,0.088,0.003
30/03/2023,07:51:40,0.156,0.0,0.091,0.003
30/03/2023,07:52:39,0.160,0.0,0.093,0.002
30/03/2023,07:53:40,0.166,0.0,0.096,0.003
30/03/2023,07:54:40,0.163,0.0,0.099,0.003
30/03/2023,07:55:39,0.157,0.0,0.101,0.002
30/03/2023,07:56:40,0.158,0.0,0.104,0.003
30/03/2023,07:57:39,0.165,0.0,0.106,0.002
30/03/2023,07:58:40,0.178,0.0,0.109,0.003
30/03/2023,07:59:40,0.183,0.0,0.112,0.003
30/03/2023,08:00:40,0.186,0.0,0.115,0.003
30/03/2023,08:01:39,0.189,0.0,0.119,0.004
30/03/2023,08:02:40,0.183,0.0,0.122,0.003
30/03/2023,08:03:40,0.195,0.0,0.125,0.003
30/03/2023,08:04:40,0.195,0.0,0.128,0.003
30/03/2023,08:05:39,0.202,0.0,0.131,0.003
30/03/2023,08:06:39,0.206,0.0,0.135,0.004
30/03/2023,08:07:40,0.208,0.0,0.138,0.003
30/03/2023,08:08:40,0.212,0.0,0.142,0.004
30/03/2023,08:09:40,0.216,0.0,0.145,0.003
30/03/2023,08:10:39,0.209,0.0,0.149,0.004
30/03/2023,08:11:40,0.216,0.0,0.152,0.003
30/03/2023,08:12:40,0.230,1.0,0.156,0.004
30/03/2023,08:13:40,0.231,1.0,0.16,0.004
30/03/2023,08:14:40,0.226,1.0,0.164,0.004
30/03/2023,08:15:40,0.242,1.0,0.167,0.003
30/03/2023,08:16:40,0.250,1.0,0.172,0.005
30/03/2023,08:17:39,0.249,1.0,0.176,0.004
30/03/2023,08:18:40,0.224,1.0,0.18,0.004
30/03/2023,08:19:39,0.219,1.0,0.183,0.003
30/03/2023,08:20:40,0.220,1.0,0.187,0.004
30/03/2023,08:21:41,0.227,1.0,0.191,0.004
30/03/2023,08:22:41,0.215,0.0,0.195,0.004
30/03/2023,08:23:40,0.223,1.0,0.199,0.004
30/03/2023,08:24:40,0.269,1.0,0.203,0.004
30/03/2023,08:25:40,0.269,1.0,0.207,0.004
30/03/2023,08:26:41,0.242,1.0,0.211,0.004
30/03/2023,08:27:40,0.293,1.0,0.216,0.005
30/03/2023,08:28:39,0.266,1.0,0.22,0.004
30/03/2023,08:29:40,0.210,0.0,0.224,0.004
30/03/2023,08:30:40,0.189,0.0,0.227,0.003
30/03/2023,08:31:40,0.173,0.0,0.231,0.004
30/03/2023,08:32:40,0.152,0.0,0.233,0.002
30/03/2023,08:33:40,0.143,0.0,0.236,0.003
30/03/2023,08:34:39,0.152,0.0,0.238,0.002
30/03/2023,08:35:40,0.162,0.0,0.241,0.003
30/03/2023,08:36:40,0.185,0.0,0.244,0.003
30/03/2023,08:37:40,0.206,0.0,0.247,0.003
30/03/2023,08:38:39,0.223,1.0,0.25,0.003
30/03/2023,08:39:40,0.227,1.0,0.254,0.004
30/03/2023,08:40:40,0.214,0.0,0.258,0.004
30/03/2023,08:41:40,0.204,0.0,0.261,0.003
30/03/2023,08:42:39,0.224,1.0,0.265,0.004
30/03/2023,08:43:40,0.258,1.0,0.269,0.004
30/03/2023,08:44:40,0.280,1.0,0.273,0.004
30/03/2023,08:45:40,0.283,1.0,0.278,0.005
30/03/2023,08:46:40,0.288,1.0,0.283,0.005
30/03/2023,08:47:39,0.295,1.0,0.288,0.005
30/03/2023,08:48:40,0.328,1.0,0.293,0.005
30/03/2023,08:49:40,0.393,1.0,0.3,0.007
30/03/2023,08:50:40,0.364,1.0,0.305,0.005
30/03/2023,08:51:40,0.286,1.0,0.31,0.005
30/03/2023,08:52:39,0.283,1.0,0.315,0.005
30/03/2023,08:53:40,0.284,1.0,0.32,0.005
30/03/2023,08:54:40,0.299,1.0,0.325,0.005
30/03/2023,08:55:40,0.306,1.0,0.33,0.005
30/03/2023,08:56:40,0.308,1.0,0.335,0.005
30/03/2023,08:57:40,0.307,1.0,0.34,0.005
30/03/2023,08:58:40,0.330,1.0,0.345,0.005
30/03/2023,08:59:40,0.449,1.0,0.352,0.007
30/03/2023,09:00:39,0.411,1.0,0.359,0.007
30/03/2023,09:01:40,0.458,1.0,0.366,0.007
30/03/2023,09:02:39,0.394,1.0,0.374,0.008
30/03/2023,09:03:40,0.473,1.0,0.381,0.007
30/03/2023,09:04:39,0.478,1.0,0.389,0.008
30/03/2023,09:05:40,0.411,1.0,0.397,0.008
30/03/2023,09:06:40,0.499,1.0,0.405,0.008
30/03/2023,09:07:40,0.487,1.0,0.413,0.008
30/03/2023,09:08:40,0.371,1.0,0.42,0.007
30/03/2023,09:09:40,0.377,1.0,0.426,0.006
30/03/2023,09:10:40,0.507,1.0,0.434,0.008
30/03/2023,09:11:39,0.395,1.0,0.441,0.007
30/03/2023,09:12:42,0.375,1.0,0.45,0.009
30/03/2023,09:13:40,0.522,1.0,0.457,0.007
30/03/2023,09:14:40,0.403,1.0,0.465,0.008
30/03/2023,09:15:40,0.413,1.0,0.472,0.007
30/03/2023,09:16:40,0.547,1.0,0.479,0.007
30/03/2023,09:17:40,0.398,1.0,0.488,0.009
30/03/2023,09:18:40,0.492,1.0,0.495,0.007
30/03/2023,09:19:40,0.430,1.0,0.503,0.008
30/03/2023,09:20:40,0.419,1.0,0.51,0.007
30/03/2023,09:21:40,0.455,1.0,0.518,0.008
30/03/2023,09:22:39,0.454,1.0,0.526,0.008
30/03/2023,09:23:40,0.587,1.0,0.534,0.008
30/03/2023,09:24:41,0.450,1.0,0.543,0.009
30/03/2023,09:25:40,0.441,1.0,0.55,0.007
30/03/2023,09:26:39,0.597,1.0,0.56,0.01
30/03/2023,09:27:39,0.407,1.0,0.568,0.008
30/03/2023,09:28:40,0.429,1.0,0.575,0.007
30/03/2023,09:29:40,0.470,1.0,0.583,0.008
30/03/2023,09:30:40,0.480,1.0,0.592,0.009
30/03/2023,09:31:39,0.432,1.0,0.6,0.008
30/03/2023,09:32:40,0.397,1.0,0.607,0.007
30/03/2023,09:33:40,0.407,1.0,0.614,0.007
30/03/2023,09:34:39,0.459,1.0,0.621,0.007
30/03/2023,09:35:40,0.373,1.0,0.628,0.007
30/03/2023,09:36:40,0.363,1.0,0.634,0.006
30/03/2023,09:37:40,0.468,1.0,0.64,0.006
30/03/2023,09:38:40,0.397,1.0,0.647,0.007
30/03/2023,09:39:40,0.427,1.0,0.654,0.007
30/03/2023,09:40:40,0.453,1.0,0.663,0.009
30/03/2023,09:41:40,0.561,1.0,0.671,0.008
30/03/2023,09:42:40,0.618,1.0,0.68,0.009
30/03/2023,09:43:39,0.418,1.0,0.689,0.009
30/03/2023,09:44:40,0.479,1.0,0.697,0.008
30/03/2023,09:45:40,0.422,1.0,0.706,0.009
30/03/2023,09:46:40,0.322,1.0,0.712,0.006
30/03/2023,09:47:39,0.319,1.0,0.717,0.005
30/03/2023,09:48:40,0.470,1.0,0.724,0.007
30/03/2023,09:49:40,0.583,1.0,0.734,0.01
30/03/2023,09:50:39,0.629,1.0,0.743,0.009
30/03/2023,09:51:39,0.631,1.0,0.754,0.011
30/03/2023,09:52:40,0.658,2.0,0.766,0.012
30/03/2023,09:53:40,0.514,1.0,0.775,0.009
30/03/2023,09:54:40,0.540,1.0,0.784,0.009
30/03/2023,09:55:40,0.577,1.0,0.792,0.008
30/03/2023,09:56:40,0.665,2.0,0.803,0.011
30/03/2023,09:57:43,0.608,1.0,0.816,0.013
30/03/2023,09:58:41,0.512,1.0,0.824,0.008
30/03/2023,09:59:43,0.524,1.0,0.834,0.01
30/03/2023,10:00:41,0.482,1.0,0.842,0.008
30/03/2023,10:01:44,0.499,1.0,0.851,0.009
30/03/2023,10:02:41,0.541,1.0,0.859,0.008
30/03/2023,10:03:40,0.538,1.0,0.868,0.009
30/03/2023,10:04:40,0.572,1.0,0.877,0.009
30/03/2023,10:05:40,0.838,2.0,0.889,0.012
30/03/2023,10:06:40,0.520,1.0,0.899,0.01
30/03/2023,10:07:40,0.525,1.0,0.908,0.009
30/03/2023,10:08:40,0.547,1.0,0.917,0.009
30/03/2023,10:09:40,0.550,1.0,0.927,0.01
30/03/2023,10:10:39,0.541,1.0,0.937,0.01
30/03/2023,10:11:40,0.868,2.0,0.947,0.01